Location: Beekmeers
(50.8953°N, 3.6968°E)
Time: 13:40:03
(UTC+00:00)

Cosmos 841 Rocket - Pass Details

Date: 23 May 2024
Orbit: 744 x 770 km, 74.0° (Epoch: 18 June)

Event Time Altitude Azimuth Distance (km) Brightness Sun altitude
Rises 00:23:37 0° 338° (NNW) 3,231 7.7 -17.9°
Reaches altitude 10° 00:26:04 10° 344° (NNW) 2,305 6.9 -17.8°
Maximum altitude 00:31:09 49° 59° (ENE) 986 4.3 -17.6°
Drops below altitude 10° 00:36:13 10° 134° (SE) 2,305 5.7 -17.5°
Enters shadow 00:36:26 - 135° (SE) 2,386 5.8 -17.5°
